User: anonymous   Login
Location: Unspecified
(0.0000°N, 0.0000°E)
Time: 10:07:31
(UTC+00:00)
Language:

STARLINK-3844 - Orbit

View from above orbital plane
View from above orbital plane
View from above satellite
View from above satellite

Ground track
Ground track

The orbit is defined by the following mean orbital elements,

1 52705U          26145.31810756 +.00000000 +00000-0 -12472-3 0 00001
2 52705  53.2124 150.1211 0001331  59.0536 301.0587 15.08850971    03
Epoch (UTC): 25 May 2026 07:38:04
Eccentricity: 0.0001331
inclination: 53.2124°
perigee height: 539 km
apogee height: 541 km
right ascension of ascending node: 150.1211°
argument of perigee: 59.0536°
revolutions per day: 15.08850971
mean anomaly at epoch: 301.0587°

The dashed part of the orbit path shows where the satellite is in the earth's shadow,  

DLR